Location: Gravenhurst
(44.9196°N, 79.3742°W)
Time: 17:18:32
(UTC-05:00)

Envisat - Pass Details

Date: 26 October 2019
Orbit: 764 x 766 km, 98.1° (Epoch: 17 November)

Event Time Altitude Azimuth Distance (km) Brightness Sun altitude
Rises 06:51:42 0° 31° (NNE) 3,240 6.6 -10.5°
Reaches altitude 10° 06:55:09 10° 56° (NE) 2,307 6.2 -9.9°
Maximum altitude 06:57:52 14° 88° (E) 2,008 6.6 -9.4°
Drops below altitude 10° 07:00:35 10° 121° (ESE) 2,298 6.7 -8.9°
Sets 07:03:59 0° 146° (SE) 3,217 6.9 -8.3°
